Weather History for Dansville, NY

Change the Weather History Date:

Monday, May 20, 2013

  Actual Average Record
Temperature  
Mean Temperature 76 °F -  
Max Temperature 87 °F 72 °F 92 °F (1962)
Min Temperature 64 °F 47 °F 30 °F (1956)
Cooling Degree Days 10    
Growing Degree Days 26 (Base 50)    
Moisture  
Dew Point 61 °F    
Average Humidity 65    
Maximum Humidity 83    
Minimum Humidity 41    
Precipitation  
Precipitation 0.00 in - - ()
Sea Level Pressure  
Sea Level Pressure 30.00 in    
Wind  
Wind Speed 6 mph (SE)    
Max Wind Speed 9 mph    
Max Gust Speed -    
Visibility 10 miles    
Events      
Averages and records for this station are not official NWS values.
T = Trace of Precipitation, MM = Missing Value Source: NWS Daily Summary

Daily Weather History Graph

Daily Weather History Graph

Search for Another Location

Airport:

Trip Planner

Search our weather history database for the weather conditions in past years. The results will help you decide how hot, cold, wet, or windy it might be!

Date:

Astronomy

May. 20, 2013 Rise Set
Actual Time 5:43 AM EDT 8:31 PM EDT
Civil Twilight 5:11 AM EDT 9:04 PM EDT
Nautical Twilight 4:29 AM EDT 9:46 PM EDT
Astronomical Twilight 3:41 AM EDT 10:34 PM EDT
Moon 3:31 PM EDT (5/20) 2:44 AM EDT (5/20)
Length of Visible Light 15h 53m
Length of Day
14h 47m
Waxing Gibbous, 75% of the Moon is Illuminated
May 20
Waxing Gibbous
May 25
Full
May 31
Last Quarter
Jun 8
New
Jun 16
First Quarter

Hourly Weather History & Observations

Time (EDT) Temp. Heat Index Dew Point Humidity Pressure Visibility Wind Dir Wind Speed Gust Speed Precip Events Conditions
12:54 AM 64.9 °F - 57.9 °F 78% 30.08 in 10.0 mi SE 8.1 mph - N/A   Partly Cloudy
1:15 AM 66.2 °F - 57.2 °F 73% 30.06 in 10.0 mi SE 8.1 mph - N/A   Mostly Cloudy
1:54 AM 66.0 °F - 57.9 °F 75% 30.06 in 10.0 mi ESE 8.1 mph - N/A   Overcast
2:54 AM 66.0 °F - 57.9 °F 75% 30.06 in 10.0 mi SE 6.9 mph - N/A   Overcast
4:54 AM 66.0 °F - 57.9 °F 75% 30.05 in 10.0 mi ESE 9.2 mph - N/A   Mostly Cloudy
5:13 AM 64.4 °F - 57.2 °F 77% 30.03 in 10.0 mi SE 6.9 mph - N/A   Scattered Clouds
5:33 AM 64.4 °F - 57.2 °F 77% 30.02 in 10.0 mi SE 8.1 mph - N/A   Mostly Cloudy
5:54 AM 64.9 °F - 59.0 °F 81% 30.05 in 10.0 mi ESE 5.8 mph - N/A   Overcast
6:54 AM 66.0 °F - 59.0 °F 78% 30.08 in 10.0 mi SSE 4.6 mph - N/A   Mostly Cloudy
7:13 AM 66.2 °F - 60.8 °F 83% 30.06 in 10.0 mi ESE 5.8 mph - N/A   Scattered Clouds
8:54 AM 72.0 °F - 62.1 °F 71% 30.08 in 10.0 mi SE 6.9 mph - N/A   Clear
9:54 AM 75.0 °F - 63.0 °F 66% 30.06 in 10.0 mi SE 4.6 mph - N/A   Clear
10:54 AM 79.0 °F - 64.0 °F 60% 30.04 in 10.0 mi Variable 4.6 mph - N/A   Clear
11:54 AM 80.1 °F 81.2 °F 62.1 °F 54% 30.02 in 10.0 mi Calm Calm - N/A   Clear
12:54 PM - - - N/A% 29.98 in 10.0 mi North - - N/A   Clear
1:54 PM 84.0 °F 84.9 °F 63.0 °F 49% 29.98 in 10.0 mi ESE 4.6 mph - N/A   Clear
2:54 PM 84.0 °F 84.4 °F 61.0 °F 46% 29.97 in 9.0 mi Calm Calm - N/A   Mostly Cloudy
3:54 PM 86.0 °F 85.7 °F 60.1 °F 41% 29.95 in 10.0 mi Calm Calm - N/A   Clear
4:54 PM 87.1 °F 87.0 °F 61.0 °F 41% 29.93 in 10.0 mi South 5.8 mph - N/A   Mostly Cloudy
5:54 PM 86.0 °F 86.8 °F 63.0 °F 46% 29.91 in 10.0 mi ESE 6.9 mph - N/A   Partly Cloudy
6:54 PM 84.9 °F 85.4 °F 62.1 °F 46% 29.88 in 10.0 mi South 5.8 mph - N/A   Clear
7:54 PM 82.9 °F 84.0 °F 63.0 °F 51% 29.90 in 10.0 mi South 3.5 mph - N/A   Scattered Clouds
8:54 PM 75.9 °F - 64.0 °F 67% 29.91 in 10.0 mi South 4.6 mph - N/A   Clear
10:54 PM 71.1 °F - 63.0 °F 75% 29.95 in 10.0 mi SE 5.8 mph - N/A   Partly Cloudy
11:54 PM 71.1 °F - 63.0 °F 75% 29.94 in 10.0 mi SSE 3.5 mph - N/A   Clear